GFSMW_sfc_thetae_021.txt.gz
Theta_e
323 325 327 331 334 336 339 344 343 352 350 345 339 336 333 336 335 336 339 339 340 342 342 341 340 340 336 334 335 332 332 332 335 331 330 332 335 335 332 333 332 333 335
322 323 326 334 334 336 339 340 341 347 348 343 342 337 337 334 334 336 339 340 340 341 339 339 340 339 338 336 332 335 332 334 336 327 328 322 327 333 332 333 333 335 334
320 323 324 334 334 335 338 339 341 345 346 347 342 339 337 337 334 333 334 338 339 340 340 338 338 338 339 336 336 334 331 329 333 332 329 322 320 325 333 333 332 339 341
321 323 325 332 334 335 337 339 342 342 342 346 343 344 334 329 332 336 334 337 338 337 337 337 336 336 339 335 334 336 332 333 329 333 331 333 331 322 321 334 337 341 340
320 321 328 332 334 335 336 339 341 340 342 342 344 335 336 331 333 333 336 339 339 337 336 336 336 337 338 337 335 333 333 335 333 332 335 331 332 331 320 320 329 334 337
321 325 331 332 333 334 336 338 338 338 340 338 339 339 337 334 332 333 335 337 340 338 337 334 336 337 338 335 333 335 334 334 336 337 333 335 329 325 327 328 327 326 328
324 327 329 329 331 333 334 335 336 337 337 337 336 336 337 337 336 335 336 335 335 337 337 335 337 337 337 337 337 336 335 336 335 335 335 338 338 334 336 328 324 324 326
326 327 328 329 330 332 333 334 335 334 335 335 335 337 338 335 336 336 334 337 335 337 336 336 337 336 336 336 337 342 339 337 338 335 336 339 338 340 340 337 326 320 323
326 327 328 330 330 332 333 334 334 334 334 333 336 337 338 336 336 336 337 335 336 333 335 336 336 335 335 336 336 337 335 335 336 336 337 337 337 335 340 341 334 331 319
326 327 328 330 331 332 334 335 334 333 332 334 335 335 337 337 337 335 334 336 334 333 334 335 336 335 335 336 337 336 335 334 335 334 331 333 336 330 336 334 334 335 326
325 327 328 329 331 332 333 334 332 331 331 334 334 337 336 336 336 334 333 334 334 333 332 332 334 334 334 335 334 334 333 331 330 329 327 331 333 335 332 330 331 329 327
325 326 327 329 330 331 332 332 330 329 331 332 333 334 336 337 336 335 336 334 333 332 331 330 330 332 332 333 332 330 331 330 328 326 328 328 330 333 333 332 328 325 325
325 326 327 327 329 330 331 328 328 328 330 331 332 335 336 337 335 335 336 333 332 331 332 331 330 331 331 330 331 331 330 331 331 327 325 325 327 328 327 326 325 324 324
324 325 326 327 329 330 328 326 326 328 329 330 331 333 336 335 334 335 335 332 332 331 331 331 332 333 332 331 330 331 330 331 332 332 329 326 329 327 327 326 326 325 322
323 325 325 327 328 328 327 325 326 327 329 328 331 334 335 335 334 334 334 335 332 335 331 333 332 332 333 330 330 332 333 332 333 331 329 331 326 322 325 326 326 325 323
323 325 326 327 327 327 325 325 326 327 328 328 331 332 333 332 333 334 334 335 334 334 333 333 331 332 329 310 313 319 335 334 332 331 329 329 325 319 314 315 318 323 323
324 325 326 328 328 327 326 324 326 327 327 329 331 331 331 331 331 332 332 333 334 336 335 334 333 332 330 310 311 311 334 335 334 332 328 330 330 327 321 312 312 313 313
325 326 327 329 330 328 326 326 326 326 326 329 330 331 331 331 330 331 332 334 339 336 337 335 334 332 326 305 304 306 335 335 333 334 334 333 331 330 327 327 325 324 325
328 329 330 331 331 327 326 325 325 324 325 328 330 330 331 331 332 333 334 338 338 338 335 335 334 332 329 303 303 313 335 333 332 332 334 333 331 306 310 327 324 320 317
329 330 331 331 331 328 327 325 324 323 324 327 330 331 331 332 332 335 336 337 339 337 335 333 334 321 329 303 301 317 333 329 333 332 325 309 320 303 309 327 327 322 321
329 332 331 331 331 328 327 324 325 322 325 328 331 332 334 333 335 336 337 338 337 336 333 332 334 333 329 321 304 306 332 332 331 329 327 326 300 304 306 315 328 322 327
328 331 330 331 332 328 326 324 324 325 326 327 330 332 334 333 334 335 335 336 338 336 332 332 330 331 332 314 304 304 313 318 331 328 328 320 299 301 306 318 303 303 315
328 330 331 331 331 329 327 324 326 325 325 326 329 332 334 333 335 334 334 332 335 331 332 331 327 327 330 327 303 304 306 311 330 329 313 299 297 298 305 300 303 304 327
326 329 330 330 330 329 327 327 327 325 324 326 328 331 332 332 334 332 330 330 329 329 329 328 328 329 330 329 330 328 323 309 318 308 316 317 310 304 311 313 314 328 331
328 329 330 331 331 329 327 327 327 325 325 327 327 329 331 332 332 332 328 327 333 324 328 328 328 330 328 328 320 323 329 330 324 327 329 328 329 325 322 323 325 328 329
329 327 330 331 332 329 328 326 327 325 327 328 326 326 327 331 330 329 329 298 303 302 304 303 314 326 311 305 303 304 303 301 304 326 327 327 327 326 325 324 324 325 321

GFSMW_sfc_thetae_024.txt.gz
Theta_e
326 329 330 333 339 341 347 352 354 358 351 349 346 344 339 340 340 342 344 343 344 342 343 340 340 338 336 334 333 332 330 328 329 326 327 327 330 330 330 332 331 330 331
322 325 330 334 341 342 345 350 350 351 351 349 347 344 341 337 338 340 343 343 342 342 336 339 337 338 335 333 330 330 328 327 330 323 322 317 323 327 330 330 330 329 332
319 322 325 337 338 340 343 344 347 351 350 351 347 349 341 344 339 341 340 341 341 340 340 339 337 336 334 332 330 330 328 324 329 327 322 315 314 319 326 329 330 330 332
321 322 326 335 337 337 340 343 346 348 349 347 343 341 336 335 338 337 338 339 341 339 339 338 336 336 335 333 333 332 330 327 323 326 327 326 323 317 315 324 326 328 330
321 323 326 335 336 337 339 342 345 345 346 344 343 341 340 339 341 339 340 341 341 339 338 338 337 336 335 334 333 332 330 329 326 325 325 325 324 324 319 315 320 325 328
321 323 332 334 334 336 338 341 341 342 341 345 345 341 340 341 338 337 338 338 339 340 338 337 336 336 335 334 333 332 331 330 329 328 327 326 321 320 319 313 320 322 327
321 329 330 331 332 334 337 338 338 337 340 342 340 343 342 341 339 339 336 337 336 336 337 337 335 335 336 335 333 333 331 332 328 328 327 330 328 327 324 321 323 321 325
327 329 330 330 331 334 335 335 337 336 338 338 338 342 343 338 340 340 337 335 335 336 337 337 336 336 336 335 335 334 333 332 329 328 329 329 329 329 328 325 322 318 321
328 328 329 330 332 333 335 336 336 336 336 337 340 341 341 339 338 341 340 336 338 335 337 336 336 336 335 334 333 332 333 333 331 328 330 329 330 333 331 330 327 321 316
326 327 328 330 332 334 336 336 336 335 335 335 338 338 334 339 338 336 336 336 337 332 336 336 336 334 335 335 332 333 332 333 331 329 328 328 330 328 329 328 327 325 320
325 326 328 331 332 333 333 335 334 333 333 336 338 337 337 338 333 335 332 336 337 331 333 334 334 334 333 334 333 332 331 327 326 327 327 327 328 329 326 326 326 323 321
325 327 328 329 330 332 332 333 333 330 333 334 336 336 338 337 336 335 333 335 334 334 331 331 333 333 332 331 331 329 331 327 324 325 327 326 328 327 328 325 324 322 322
325 326 327 328 329 331 331 331 330 329 331 331 334 333 336 336 336 334 334 333 335 332 330 329 332 332 331 331 332 331 331 330 327 325 324 325 326 326 325 325 323 321 321
325 325 326 328 329 331 330 328 327 329 330 331 333 335 337 334 335 334 336 334 333 330 329 331 333 332 331 331 331 331 331 328 328 327 324 325 326 325 325 324 323 321 320
323 325 326 327 329 330 328 326 327 328 331 331 334 334 336 335 334 333 334 336 334 331 332 332 332 333 332 328 328 332 330 328 328 328 327 326 325 322 324 324 321 321 321
323 324 326 328 329 328 326 326 327 327 330 332 332 333 332 332 332 333 333 335 334 333 332 333 331 332 327 309 310 322 331 330 328 324 326 324 321 317 313 316 316 321 321
323 325 326 328 329 328 327 326 327 328 328 331 331 332 332 332 332 333 332 334 334 332 332 332 333 329 326 306 303 308 332 331 327 327 328 328 326 323 321 312 312 312 312
325 326 328 330 330 328 326 328 327 326 327 331 329 330 329 329 330 330 330 333 334 333 333 333 333 330 321 304 303 305 332 331 330 331 329 328 325 324 325 324 322 323 323
328 328 331 332 331 328 327 326 326 325 326 328 328 329 330 330 331 332 332 333 332 330 331 333 333 329 324 305 303 315 332 330 330 331 330 329 326 307 310 324 322 321 320
332 329 331 333 331 329 328 326 325 324 326 328 329 330 331 332 332 335 335 335 335 335 334 331 331 319 326 304 302 315 331 328 328 328 321 310 319 307 309 323 321 319 320
329 332 332 331 331 330 328 325 325 323 327 329 331 332 333 332 335 337 336 337 334 334 332 331 331 330 327 318 305 306 331 328 327 325 322 316 303 303 306 314 323 320 322
327 331 331 332 332 330 327 325 326 326 327 329 330 333 335 333 335 337 338 336 334 332 331 329 329 330 329 311 306 304 313 318 326 325 323 310 301 304 307 316 303 303 314
326 330 331 333 331 329 327 326 328 327 327 329 333 333 334 334 336 335 335 333 334 331 329 328 326 326 328 324 303 305 309 311 326 327 309 297 299 299 304 303 302 306 325
325 329 332 332 330 329 328 329 328 326 326 329 333 333 332 333 334 333 334 332 331 330 329 327 325 327 327 326 326 325 321 310 314 308 312 310 308 309 311 309 309 326 328
327 329 331 332 331 329 328 329 327 326 327 330 332 333 333 333 333 332 328 331 326 323 329 330 329 328 326 325 319 322 327 326 319 321 323 324 320 320 321 323 324 325 327
329 328 332 334 332 330 328 327 327 327 329 328 330 331 331 332 331 329 325 298 303 300 299 301 324 330 313 304 305 305 306 304 304 323 324 324 322 319 321 321 322 324 322

GFSMW_sfc_thetae_030.txt.gz
Theta_e
313 316 316 315 316 316 316 323 333 335 339 337 337 334 330 329 329 331 334 333 333 334 331 329 328 327 327 326 324 323 323 323 324 321 318 318 321 322 322 323 324 325 327
310 312 313 315 318 323 327 327 333 338 339 340 336 333 330 327 329 329 334 335 333 333 330 329 327 326 324 323 322 321 319 320 324 318 315 312 316 321 322 322 323 324 324
309 310 312 314 318 323 329 333 336 337 337 336 334 328 327 326 324 324 326 329 332 331 329 328 326 325 324 323 321 319 319 316 318 319 317 311 308 311 315 319 321 322 322
309 311 311 316 321 326 332 336 337 337 337 337 332 329 323 322 323 324 325 327 330 330 330 328 327 325 323 321 321 322 319 317 314 316 320 316 315 310 307 314 318 320 322
307 308 310 319 325 329 330 336 336 336 334 332 331 327 322 323 322 324 324 326 326 328 330 327 326 324 323 322 322 322 320 318 316 314 315 315 315 317 312 306 311 317 319
306 314 317 326 326 329 332 334 333 329 330 329 326 323 323 322 323 322 323 323 324 326 327 327 324 324 323 323 322 323 322 320 318 317 316 316 314 313 312 312 309 312 320
308 320 322 325 328 330 332 331 330 327 327 325 325 324 324 323 323 322 322 323 323 322 323 324 323 323 325 326 325 323 322 321 319 318 318 317 317 315 312 311 311 313 319
317 320 323 326 329 330 330 328 327 327 326 326 324 324 324 324 323 323 322 322 322 323 324 324 324 325 327 327 326 324 323 322 322 319 319 319 319 319 314 312 317 313 317
318 320 324 327 328 327 327 326 326 325 324 326 325 324 325 324 323 322 322 322 322 322 325 325 325 326 327 327 326 325 323 322 321 322 321 320 321 321 321 317 318 315 310
319 322 324 326 326 326 326 326 325 323 324 325 325 325 324 325 324 324 323 323 322 324 324 325 325 325 325 326 326 325 325 322 320 321 322 323 322 322 321 319 318 316 314
319 322 324 325 325 327 326 324 324 323 324 325 324 324 324 325 323 322 323 323 322 324 325 326 326 326 325 325 324 325 324 322 321 318 320 321 320 319 323 321 317 315 314
320 322 323 324 325 326 325 323 323 322 323 325 324 323 324 323 322 323 323 321 321 322 324 326 327 327 324 323 323 324 324 322 322 320 319 321 323 322 322 321 319 317 316
320 321 322 324 325 325 325 323 323 322 323 326 326 324 323 323 322 322 322 321 321 322 322 325 325 325 324 327 327 327 326 323 322 322 319 320 322 322 321 321 320 321 322
320 321 322 323 324 325 325 323 321 322 324 326 326 324 323 323 322 322 322 324 324 326 324 325 325 326 325 326 328 327 324 325 324 324 322 323 323 322 321 320 320 321 320
319 320 321 322 323 323 323 322 321 321 323 326 327 325 324 323 323 322 324 325 326 326 327 325 324 322 321 318 319 327 324 320 319 323 325 324 323 321 320 321 320 320 319
319 321 321 323 322 322 321 321 321 319 326 328 328 328 325 324 322 322 326 325 325 326 326 323 322 318 319 302 307 319 322 321 323 322 321 321 318 315 312 313 313 318 318
319 320 321 323 323 322 320 318 318 324 326 328 329 327 326 324 323 322 322 324 324 325 322 319 318 315 313 300 304 311 321 322 324 323 322 321 319 318 318 311 311 310 309
320 321 322 323 322 320 317 317 323 325 326 327 328 327 328 324 323 322 321 320 320 325 319 317 315 313 313 301 304 308 321 322 323 324 323 320 321 320 320 320 319 319 319
321 322 323 323 320 318 317 319 323 324 324 328 326 326 326 324 324 322 321 320 320 319 319 318 315 314 315 301 304 315 321 321 323 324 324 322 321 305 307 320 318 317 315
322 322 323 322 319 316 318 318 320 322 323 325 326 326 325 325 323 322 321 321 324 322 323 319 317 312 315 300 303 316 323 322 322 323 320 308 314 301 305 320 319 316 316
321 323 322 320 318 317 318 316 316 319 323 326 325 324 324 324 323 322 322 322 322 322 321 319 316 315 314 310 302 307 321 322 321 321 320 315 300 300 302 309 319 315 317
322 322 320 318 317 318 317 315 314 316 319 323 324 323 325 326 325 323 323 322 320 320 318 317 316 315 315 305 302 304 309 312 321 321 320 311 299 300 301 309 299 302 311
321 322 319 317 316 317 318 315 315 315 320 323 323 325 326 326 325 324 322 320 319 320 319 319 318 314 314 314 301 302 303 306 316 318 311 299 298 298 300 299 301 305 320
322 322 319 317 315 315 317 317 315 317 325 323 323 325 326 323 325 325 324 321 319 319 319 319 315 314 314 315 313 312 310 304 310 306 307 306 306 304 307 308 310 319 318
320 324 320 318 317 316 317 318 317 321 324 323 324 325 325 324 323 319 319 323 322 321 321 321 320 317 316 316 310 313 316 314 310 310 314 316 316 314 315 318 320 320 318
318 321 321 320 319 318 317 319 317 323 323 322 324 325 324 323 320 314 310 298 300 299 303 308 316 320 310 299 299 301 301 298 301 314 315 312 313 315 317 318 318 318 316

GFSMW_sfc_thetae_033.txt.gz
Theta_e
311 313 313 314 313 313 313 314 321 327 333 333 332 331 332 330 329 334 334 334 334 334 331 328 327 325 325 325 322 321 321 320 322 318 320 320 322 320 320 322 322 324 326
309 311 311 311 312 314 314 312 319 329 333 335 334 329 328 326 329 332 334 334 333 332 329 327 326 325 323 323 321 324 318 320 322 316 316 312 316 318 320 320 322 322 324
307 308 309 310 311 313 317 320 323 331 332 331 329 327 326 325 324 325 328 329 331 331 329 328 326 324 322 322 320 318 319 315 320 318 314 308 308 312 318 318 320 321 320
306 307 309 309 310 314 325 328 331 332 333 332 328 328 326 324 321 323 324 326 330 330 329 331 328 326 324 321 320 321 317 316 314 315 318 314 313 312 309 314 316 319 320
305 305 307 307 313 325 328 331 333 333 332 330 329 326 323 322 321 322 323 323 325 328 329 329 328 325 321 321 321 321 318 317 316 314 313 313 313 314 311 307 311 315 317
304 304 307 310 320 326 331 332 332 328 329 328 326 325 323 321 321 320 321 321 322 324 327 326 324 323 322 321 321 321 320 318 317 315 314 313 312 311 312 310 308 310 318
302 306 317 319 324 327 328 330 330 326 326 325 323 323 322 322 321 320 321 320 321 321 323 323 321 321 322 322 321 321 321 320 317 317 315 315 314 313 313 314 313 310 318
305 308 318 322 326 327 327 328 327 323 323 323 322 322 322 322 321 321 321 321 321 321 322 322 321 322 323 323 323 323 323 321 320 318 318 316 316 315 313 311 313 309 316
314 317 322 325 326 326 323 326 325 323 323 322 322 322 322 322 321 321 321 321 320 322 322 323 323 323 325 324 324 324 325 324 321 320 319 318 318 317 316 315 320 313 308
316 321 324 324 325 325 323 324 324 323 323 323 324 323 322 322 321 321 320 320 320 322 322 322 322 323 324 324 323 324 324 322 319 319 321 318 320 318 318 316 316 316 313
317 321 323 323 324 323 324 322 323 323 322 323 322 322 322 322 322 321 321 321 320 323 322 324 324 324 323 323 323 323 323 321 320 317 319 319 318 317 319 317 316 313 313
318 321 322 323 324 323 323 321 322 323 323 322 322 321 322 321 320 320 321 320 321 322 323 324 325 325 323 322 322 323 323 321 321 318 318 319 322 321 321 318 316 313 314
319 320 321 323 323 322 323 322 321 322 322 322 321 321 320 320 320 321 320 319 320 320 321 324 324 324 322 323 326 324 324 322 321 321 318 322 321 320 319 320 318 317 318
319 320 321 322 323 323 323 322 320 321 323 324 322 320 320 320 320 320 319 319 320 321 323 323 324 324 323 323 324 326 325 323 322 323 322 323 323 321 321 320 320 320 319
318 320 320 321 322 322 322 322 320 320 323 324 322 320 321 321 321 320 320 322 324 325 326 323 323 321 319 315 317 325 321 320 321 322 324 323 322 320 320 321 321 320 318
319 320 321 322 322 322 322 321 319 320 324 324 325 326 325 322 321 320 323 322 325 326 326 321 320 317 317 303 308 317 320 323 323 321 321 321 318 315 312 313 314 318 319
319 320 321 322 322 322 322 318 319 320 323 327 328 326 323 322 321 320 321 324 322 324 322 317 317 315 312 300 304 309 320 324 323 322 320 319 318 317 315 310 310 310 310
319 320 322 322 322 321 319 317 318 322 324 327 327 324 323 322 321 319 319 318 320 322 317 315 314 314 311 301 302 308 324 323 323 322 321 320 319 318 319 318 317 317 318
320 321 323 322 321 318 317 318 320 322 325 325 324 325 323 321 320 319 318 317 318 317 315 315 313 313 315 301 302 314 322 322 322 322 322 321 319 303 306 318 315 313 312
321 321 322 322 319 316 317 319 319 321 323 325 324 324 322 322 321 319 318 318 318 318 318 315 313 310 316 300 301 314 323 321 321 320 318 307 312 301 305 318 316 313 314
319 320 321 319 319 316 317 318 319 320 323 326 324 323 321 322 322 319 319 319 320 320 317 316 313 313 313 311 301 306 322 321 321 319 317 312 299 300 301 308 318 314 315
319 321 320 318 315 317 317 316 318 322 322 323 323 321 321 324 322 320 319 319 319 317 315 314 313 313 317 305 300 301 309 312 321 319 317 307 297 299 300 308 298 300 309
320 321 320 315 316 317 317 314 317 315 320 321 320 321 322 322 322 320 318 317 317 317 318 318 317 314 317 315 300 299 301 304 319 320 309 297 296 297 301 298 299 304 316
319 319 316 315 314 315 316 317 313 316 321 320 320 322 322 320 322 322 320 318 317 317 318 317 316 312 316 317 315 312 310 304 308 305 306 304 304 303 305 306 309 319 315
320 319 317 315 315 315 315 314 314 320 319 320 322 322 321 321 320 318 317 319 318 318 318 316 315 314 317 316 309 311 315 317 310 311 314 316 316 315 316 317 318 316 317
316 319 318 317 317 316 315 314 317 322 321 320 322 323 322 321 319 315 311 295 302 304 306 306 312 316 305 297 297 297 296 296 299 317 317 316 316 316 317 317 318 316 312